Regional Weather Roundup
Issued by NWS

Home | Current Version | Previous Version | Text Only | Print | Product List | Glossary Off
Versions: 1 2 3 4 5 6 7 8 9 10 11 12 13 14 15 16 17 18 19 20 21 22 23 24 25 26 27 28 29 30 31 32 33 34 35 36 37 38 39 40 41 42 43 44 45 46 47 48 49 50

194
ASUS43 KMPX 190410
RWRMN
WEATHER ROUNDUP FOR MINNESOTA
NATIONAL WEATHER SERVICE TWIN CITIES/CHANHASSEN MN
1100 PM CDT MON JUN 18 2018


NOTE: "FAIR" INDICATES FEW OR NO CLOUDS BELOW 12,000 FEET WITH NO
SIGNIFICANT WEATHER AND/OR OBSTRUCTIONS TO VISIBILITY. N/A MEANS
CURRENT SKY AND/OR WEATHER CONDITIONS ARE NOT AVAILABLE.

MNZ060>063-068>070-190500-
   Twin Cities Metro

CITY           SKY/WX    TMP DP  RH WIND       PRES   REMARKS
TWIN CITIES    CLOUDY    71  62  73 E12G23    30.00F
ST PAUL        LGT RAIN  68  61  78 NE14      30.00F
CRYSTAL        CLOUDY    73  57  57 E7        29.99F
BLAINE         FAIR      73  57  56 NE7       30.01F
LAKEVILLE      MOCLDY    72  68  88 NE3       30.00S
EDEN PRAIRIE   CLOUDY    73  60  63 NE12G21   29.99F
SOUTH ST PAUL  CLOUDY    71  60  69 NE9       30.00S
LAKE ELMO      CLOUDY    72  59  64 NE8       30.02S
$$
MNZ001>005-007-008-013>017-022>024-027-028-190500-
   Northwest Minnesota

CITY           SKY/WX    TMP DP  RH WIND       PRES   REMARKS
BEMIDJI        FAIR      62  54  74 CALM      30.10R
HALLOCK        FAIR      63  55  77 CALM      30.09S
ROSEAU         FAIR      63  55  77 CALM      30.10S
WARROAD        FAIR      59  55  88 CALM      30.11R
THIEF RVR FALL FAIR      65  51  60 NE5       30.10S
CROOKSTON      FAIR      70  52  52 NE3       30.09R
DETROIT LAKES  FAIR      68  55  64 CALM      30.08F
MOORHEAD       FAIR      68  57  68 NE6       30.06S
PARK RAPIDS    FAIR      69  54  58 N9        30.08R
MAHNOMEN       FAIR      63  56  77 NE6       30.09R
$$
MNZ006-009>011-018-025>026-190500-
   North Central Minnesota

CITY           SKY/WX    TMP DP  RH WIND       PRES   REMARKS
BAUDETTE       FAIR      59  52  77 CALM      30.09R
FLAG ISLAND    FAIR      70  52  52 CALM      30.08S
INTL FALLS     FAIR      53  53 100 CALM      30.10S
WASKISH        FAIR      61  55  82 CALM      30.10R
BIG FORK       FAIR      55  54  94 CALM      30.10S
LONGVILLE      FAIR      61  57  88 CALM      30.08S
GRAND RAPIDS   FAIR      64  54  69 CALM      30.12R
ORR            FAIR      57  52  82 CALM      30.08R
WALKER         FAIR      68  53  58 NE5       30.08S
$$
MNZ012-019>021-037-190500-
   Northeast Minnesota

CITY           SKY/WX    TMP DP  RH WIND       PRES   REMARKS
DULUTH         FAIR      59  52  77 E5        30.10R
ELY            FAIR      55  52  88 CALM      30.11R
HIBBING        FAIR      57  52  83 CALM      30.10R
EVELETH        FAIR      59  54  84 CALM      30.12R
TWO HARBORS    FAIR      57  54  88 N5        30.08S
SILVER BAY     FAIR      55  55 100 CALM      30.09R
GRAND MARAIS     N/A     53  49  86 CALM      30.08R
G MARAIS ARPRT FAIR      54  46  76 SW3       30.12S
$$
MNZ029>031-032-039>041-046>048-054>057-064-190500-
   West Central Minnesota

CITY           SKY/WX    TMP DP  RH WIND       PRES   REMARKS
FERGUS FALLS   FAIR      68  59  73 NE6       30.00S
WHEATON        CLOUDY    72  57  60 NE5       30.04S
MORRIS         CLOUDY    70  61  73 E13       30.02F
ALEXANDRIA     CLOUDY    72  61  68 NE6       30.06R
ELBOW LAKE     MOCLDY    72  58  63 NE6       30.04S
WADENA         FAIR      68  55  64 CALM      30.07S
GLENWOOD       MOCLDY    66  61  82 NE10      30.05F
APPLETON       CLOUDY    72  64  78 NE3       30.01R
BENSON         CLOUDY    72  61  68 E5        30.03S
ORTONVILLE     CLOUDY    70  61  73 E7        30.02R
MADISON        CLOUDY    72  72 100 NE5       30.01R
WILLMAR        CLOUDY    70  63  78 NE7       30.04S
$$
MNZ033>034-036-042>043-049>051-058-059-190500-
   Central Minnesota

CITY           SKY/WX    TMP DP  RH WIND       PRES   REMARKS
ST CLOUD       CLOUDY    71  58  63 E5        30.03S
SAUK CENTRE    CLOUDY    70  60  70 CALM      30.06R
PAYNESVILLE    LGT RAIN  69  64  84 CALM      30.04S
AITKIN         FAIR      61  57  88 CALM      30.07S
PINE RIVER     FAIR      64  54  68 NE5       30.10F
BRAINERD       MOCLDY    70  61  73 CALM      30.06S
STAPLES        FAIR      68  54  60 CALM      30.06F
LONG PRAIRIE   LGT RAIN  68  59  73 CALM      30.06R
LITTLE FALLS   CLOUDY    70  57  64 CALM      30.05S
LITCHFIELD     CLOUDY    73  63  68 E9        30.03R
BUFFALO        LGT RAIN  71  60  69 E6        30.03S
MAPLE LAKE     CLOUDY    72  62  71 NE7       30.02F
HUTCHINSON     RAIN      69  66  88 NE8       30.02S
$$
MNZ037-044-045-052-053-190500-
   East Central Minnesota

CITY           SKY/WX    TMP DP  RH WIND       PRES   REMARKS
PRINCETON      MOCLDY    73  55  53 NE6       30.03F
MORA           MOCLDY    68  54  60 E3        30.07S
CAMBRIDGE      CLOUDY    73  55  53 NE3       30.04S
RUSH CITY      HVY RAIN  69  55  61 NE3       30.05S
MOOSE LAKE     FAIR      63  52  67 NE3       30.06F
HINCKLEY       FAIR      66  59  77 CALM      30.06F
CLOQUET        FAIR      61  52  72 CALM      30.10R
MCGREGOR       FAIR      64  55  72 E5        30.08F
$$
MNZ071>073-080-081-089-090-097-098-190500-
   Southwest Minnesota

CITY           SKY/WX    TMP DP  RH WIND       PRES   REMARKS
MONTEVIDEO     CLOUDY    70  64  83 E7        30.00S
GRANITE FALLS  RAIN      72  66  82 E5        30.01S
CANBY          CLOUDY    73  67  84 NE3       30.01F
MARSHALL       CLOUDY    70  65  84 E6        29.99F
REDWOOD FALLS  CLOUDY    70  66  87 CALM      29.99F
OLIVIA         CLOUDY    70  64  83 CALM      30.00S
PIPESTONE      LGT RAIN  68  66  94 E8        29.99S
WINDOM         CLOUDY    70  54  56 NE9       29.98S
WORTHINGTON    LGT RAIN  68  68 100 NE12      29.98F
JACKSON        RAIN      68  68 100 NE6       29.99R
TRACY          CLOUDY    70  67  89 NE9       29.99F
$$
MNZ065>067-074>077-082>085-091>093-190500-
   South Central Minnesota

CITY           SKY/WX    TMP DP  RH WIND       PRES   REMARKS
MANKATO        CLOUDY    71  66  84 E8        29.99F
NEW ULM        CLOUDY    70  64  83 E3        29.99S
ST JAMES       CLOUDY    70  66  88 NE9       29.99S
FAIRMONT       CLOUDY    71  69  93 E9        29.96F
GLENCOE        CLOUDY    72  64  74 N3        30.00R
FARIBAULT      CLOUDY    70  66  88 NE3       30.00S
OWATONNA       MOCLDY    70  66  88 E6        30.00R
WASECA         CLOUDY    70  64  83 E8        30.00F
ALBERT LEA     RAIN      70 N/A N/A E8        29.98F
$$
MNZ078>079-086>088-094>096-190500-
   Southeast Minnesota

CITY           SKY/WX    TMP DP  RH WIND       PRES   REMARKS
ROCHESTER      FAIR      70  68  93 NE7       30.00S
RED WING       CLOUDY    72  70  94 E5        29.98F
STANTON        CLOUDY    71  68  90 CALM      29.98F
DODGE CENTER   LGT RAIN  70  66  88 NE6       30.00S
WINONA         CLOUDY    73  66  78 E6        29.98F
AUSTIN         RAIN      72  68  88 E6        29.99S
PRESTON        CLOUDY    70  67  91 NE3       30.00S
$$
ABBREVIATIONS USED IN REMARKS
   TC - TEMPERATURES IN CELSIUS
  WCI - WIND CHILL INDEX
   HX - HEAT INDEX
  VSB - VISIBILITY
$$




USA.gov is the U.S. government's official web portal to all federal, state and local government web resources and services.